Wind_Speed
42 41 40 39 39 39 40 41 42 44 44 45 45 42 38 37 39 41 42 42 42 42 41 41 41 41 41 41 41 40 40 40 40 39 40 40 40 40 39 41 43 43 43 44 45 45 45 44 44 44 44 44 45 46 47 46 45 43 42 40 39 40 41 40 38 38 43 48 52 58 65 67 66 64
43 42 41 41 40 40 41 42 43 44 45 45 46 44 41 40 41 43 46 45 44 44 44 44 44 43 43 42 42 42 43 43 44 43 43 44 44 43 42 42 43 45 46 47 48 48 49 49 48 48 48 49 50 51 51 50 48 47 45 44 43 42 41 41 38 35 39 46 50 54 61 67 70 70
43 42 42 42 42 42 42 43 43 45 46 45 45 45 44 43 43 46 48 48 46 45 46 46 46 45 44 43 43 43 44 44 45 45 46 46 47 47 47 47 46 47 48 49 50 51 52 52 52 52 52 53 54 54 55 55 53 50 48 47 47 46 44 42 40 36 36 43 50 54 58 63 69 72
43 43 43 44 44 44 44 44 45 45 46 46 44 43 43 45 46 48 50 49 47 46 45 45 45 44 43 43 43 44 45 45 45 46 46 46 46 48 50 51 51 52 52 51 52 53 54 54 54 55 55 56 56 57 58 59 58 56 54 53 53 52 51 48 46 43 39 40 46 54 58 62 66 71
45 45 44 45 46 45 45 46 46 47 47 47 45 43 43 46 48 50 51 50 49 48 48 47 46 45 45 44 44 45 46 47 47 47 48 47 47 48 49 51 53 54 55 55 55 56 56 55 54 55 56 57 58 59 60 62 62 61 60 60 58 56 55 54 51 50 45 41 44 52 58 62 65 69
47 46 46 48 49 47 47 48 48 47 48 48 47 45 46 49 51 52 53 54 53 52 51 51 50 49 49 48 47 47 48 48 48 49 50 50 50 49 49 50 52 53 55 57 57 56 54 54 54 55 56 58 60 62 63 64 66 66 65 65 63 61 59 57 55 53 50 45 43 49 57 62 66 68
49 48 49 51 51 50 49 50 50 49 49 49 49 48 50 52 53 55 56 56 56 55 54 54 53 53 53 52 52 51 51 51 50 50 50 50 51 51 50 51 52 52 53 55 56 54 52 53 56 58 60 61 62 63 65 66 68 69 69 69 68 66 63 61 59 56 54 50 44 46 53 60 65 69
51 51 52 52 52 53 52 52 52 50 49 50 51 51 52 53 55 56 57 57 58 58 57 56 55 55 55 56 56 55 55 55 53 52 51 51 51 51 50 50 51 52 52 53 55 55 54 55 58 60 62 63 63 64 66 68 70 71 72 72 72 71 69 66 64 60 57 55 50 47 50 56 63 68
53 53 53 54 54 54 54 55 54 51 50 52 53 53 54 55 56 57 58 59 59 60 61 61 59 58 58 59 59 58 57 57 56 54 54 53 52 51 51 50 51 52 52 52 54 55 56 58 60 61 63 64 65 67 69 70 72 73 75 75 76 76 74 72 69 65 62 60 56 52 51 54 60 66
54 55 55 56 56 56 56 56 54 51 53 56 55 55 56 57 58 59 59 60 61 61 62 63 63 63 64 64 64 62 59 58 57 56 56 56 55 53 52 51 51 51 52 53 54 55 56 58 60 62 63 64 67 69 71 72 75 77 79 80 79 78 77 74 72 69 68 65 61 56 53 54 57 62
56 56 57 58 58 58 58 56 53 53 57 59 57 57 58 59 59 60 60 61 61 62 62 63 64 66 67 67 66 64 61 59 58 58 58 59 58 55 53 52 51 50 51 53 54 56 56 57 58 61 63 65 68 70 72 75 79 82 83 83 82 80 79 77 74 73 72 69 65 61 57 56 56 59
59 58 59 59 59 60 59 56 55 58 60 60 59 59 59 60 60 61 62 63 62 62 63 64 66 68 69 68 67 65 63 61 60 60 59 59 60 59 56 54 52 49 48 51 54 57 59 60 60 63 65 67 69 70 73 77 80 82 84 84 85 84 82 80 78 77 75 72 68 64 61 59 58 60
62 61 61 61 61 61 60 59 60 61 61 60 61 61 61 61 62 63 64 64 64 64 65 67 69 70 71 70 67 65 63 62 62 62 61 60 60 60 58 56 54 51 49 50 53 58 62 64 65 67 69 70 72 73 76 79 81 82 84 86 87 85 83 82 81 80 78 76 73 70 66 64 63 63
65 65 64 63 63 63 63 62 62 62 62 62 62 62 63 64 65 65 66 65 65 66 68 71 73 73 73 70 67 65 64 64 63 64 63 61 60 59 57 57 57 55 52 52 55 59 63 64 67 71 73 74 76 78 80 83 84 84 86 87 88 87 85 85 83 80 78 76 74 73 70 68 67 66
68 68 67 66 66 66 66 65 65 64 64 64 64 65 66 67 67 66 66 66 68 71 73 75 76 75 72 69 67 66 65 65 65 65 64 62 60 59 57 56 58 59 57 55 56 61 63 63 65 69 73 75 78 81 85 87 88 89 89 89 89 88 85 83 81 78 76 75 73 72 71 70 69 68
70 70 70 69 69 69 68 68 67 67 66 67 67 67 68 68 68 67 68 70 72 74 76 78 78 76 72 70 69 68 66 66 66 66 65 63 61 60 59 58 59 61 60 57 57 60 64 64 62 65 68 71 74 78 81 83 84 85 86 86 85 84 81 79 77 75 74 73 72 71 70 69 68 68
73 72 72 71 71 70 70 70 69 68 69 69 69 69 69 69 69 70 72 74 76 78 79 81 80 78 74 72 71 70 68 67 67 66 65 64 63 63 63 62 63 65 64 62 60 62 66 67 65 66 68 69 71 75 77 78 79 80 81 82 82 80 79 77 75 74 73 72 71 70 70 69 68 68
75 74 73 72 72 72 72 71 70 70 71 71 71 70 69 70 72 74 76 77 80 82 84 85 83 79 75 73 72 72 70 69 68 67 66 67 67 67 67 68 68 69 69 67 65 65 69 71 71 71 73 74 76 78 79 79 80 81 81 82 81 80 79 78 77 75 73 73 72 72 71 70 70 70
76 74 73 73 74 74 73 71 71 71 72 72 71 70 70 72 74 76 78 81 84 88 90 89 85 79 75 73 72 72 72 71 70 70 70 71 72 71 72 73 73 74 74 73 69 68 70 73 74 75 77 78 79 81 81 81 81 81 82 81 80 79 78 77 76 75 73 73 72 72 71 70 70 70
76 75 75 75 75 74 73 72 72 72 73 72 71 70 72 75 77 79 81 85 90 93 94 90 83 78 75 73 73 72 72 72 73 73 74 75 75 75 75 76 76 77 78 76 73 70 72 74 76 78 80 80 81 82 82 81 80 80 79 78 78 77 76 75 74 73 71 70 70 70 70 69 69 69
77 76 76 76 76 75 74 74 74 74 74 73 72 72 75 78 80 83 86 90 94 97 96 89 81 77 75 74 74 74 74 75 76 76 77 78 78 78 77 77 77 78 79 78 74 71 72 74 76 78 79 79 81 82 81 80 80 78 77 75 74 73 72 70 69 68 67 67 67 67 67 67 67 68
77 77 76 76 76 75 75 75 76 76 75 74 73 75 79 81 83 86 90 94 98 100 98 90 81 77 77 76 76 76 77 78 79 80 80 81 81 80 79 77 76 77 78 77 74 71 72 74 74 75 76 76 77 77 76 76 77 75 73 70 69 68 66 63 61 61 62 62 62 62 64 64 65 66
77 77 77 76 76 76 76 76 77 77 76 75 76 78 82 84 86 89 93 98 101 103 100 93 84 80 79 78 78 78 79 81 82 82 82 82 82 81 79 77 76 76 78 77 73 71 72 72 71 70 69 70 71 71 69 69 70 69 67 65 64 62 60 58 56 55 56 57 58 58 60 62 63 64
78 77 77 77 77 77 78 78 78 77 76 77 79 81 84 87 89 91 96 101 105 105 101 94 87 83 81 80 80 81 83 84 84 84 83 83 81 79 77 76 75 74 75 74 71 68 67 67 66 64 62 62 63 64 64 64 64 62 59 57 57 55 54 53 52 51 51 51 53 54 57 60 61 62
77 77 77 77 78 79 79 78 77 77 78 79 82 84 87 89 91 93 98 104 107 106 102 94 88 84 83 83 84 85 86 86 86 85 84 82 79 77 75 74 72 71 70 68 64 61 61 61 60 59 58 56 55 55 57 59 61 57 52 49 48 49 49 49 49 48 47 47 48 50 52 55 57 59
77 78 78 79 79 79 79 78 77 78 80 82 85 87 90 91 92 95 100 106 108 107 102 95 89 86 85 85 87 88 88 87 87 86 84 81 78 76 73 70 67 65 63 61 57 55 54 55 55 54 53 52 50 49 49 53 57 53 46 43 43 44 45 45 45 45 44 43 45 47 48 51 54 56
78 79 79 79 79 79 78 77 78 80 83 85 88 90 92 93 94 97 103 108 109 108 103 96 90 88 87 88 89 89 89 88 87 85 82 79 76 73 69 65 61 59 58 56 54 51 50 51 51 50 48 47 46 46 46 48 52 50 43 40 41 42 41 41 41 41 42 42 43 45 47 50 52 54
79 79 79 79 79 78 78 79 80 83 85 88 90 92 92 93 96 101 107 111 110 108 104 98 92 90 90 90 90 90 89 87 85 82 79 75 71 67 63 59 55 53 52 51 51 49 48 48 47 47 45 43 42 43 43 45 48 47 41 38 39 40 38 37 37 38 40 40 42 44 47 49 50 52
79 79 79 78 77 77 78 80 82 85 87 89 91 91 93 95 100 106 111 112 111 109 106 100 95 92 92 91 90 89 87 84 81 78 75 70 65 61 59 56 52 49 48 46 46 45 44 44 45 44 43 41 38 38 39 42 45 44 39 37 38 37 33 31 32 36 38 38 40 43 45 46 48 49
78 78 77 77 77 78 80 81 84 86 88 89 90 92 95 100 105 111 113 113 112 111 107 101 97 94 92 91 88 85 83 80 77 73 69 64 60 57 55 54 51 48 45 44 42 42 41 41 41 41 40 38 36 35 36 39 42 42 39 35 36 35 28 25 29 34 36 36 39 41 43 44 45 46
77 77 76 77 78 79 80 82 84 86 87 88 91 95 99 105 110 113 114 115 114 112 107 102 98 95 92 89 86 82 79 75 71 67 63 60 57 55 53 52 50 47 44 42 40 40 39 39 39 38 37 37 35 34 34 36 37 39 38 34 33 31 26 23 27 33 34 35 37 39 40 42 43 44
76 76 76 77 78 79 81 83 84 85 87 90 95 100 104 109 113 115 116 117 116 112 107 102 98 94 91 87 84 80 76 71 66 62 59 57 56 54 53 51 50 47 44 41 38 38 38 37 37 36 35 34 34 33 34 35 34 35 36 33 30 28 25 23 27 31 32 33 35 37 38 41 42 44
75 75 76 77 78 80 82 83 83 85 90 95 100 104 109 112 114 115 117 118 115 111 106 101 96 92 89 85 81 78 73 68 64 60 58 56 54 54 52 51 49 47 44 41 38 36 35 35 35 35 33 33 32 32 33 34 32 31 32 32 28 26 24 24 27 29 30 32 34 36 37 39 41 42
75 75 76 77 79 81 82 83 85 89 95 100 104 108 112 113 115 117 118 118 114 110 104 98 93 90 86 83 79 76 71 66 62 60 57 55 53 52 50 49 47 44 42 41 38 36 35 33 32 32 32 31 31 30 30 32 32 30 29 29 27 24 23 23 25 28 29 31 33 35 37 38 39 41
74 75 76 77 79 81 83 85 89 94 99 104 107 111 113 114 116 118 119 117 113 107 100 93 89 87 84 80 77 73 67 63 60 59 57 55 52 50 48 46 44 41 39 38 37 36 35 33 31 31 30 29 28 27 27 29 32 30 27 25 24 24 23 23 24 26 28 30 32 34 35 36 37 40
73 75 76 78 79 82 85 89 94 99 103 106 110 112 114 115 117 120 119 115 109 101 94 89 86 83 80 77 73 68 62 59 57 57 56 55 53 50 46 43 41 39 37 36 36 35 34 32 31 30 29 27 26 24 24 26 30 29 26 23 22 22 23 23 23 25 27 30 32 34 33 34 36 40
74 75 77 79 82 85 90 94 99 102 105 109 112 113 115 116 119 120 117 111 103 95 89 85 82 80 77 73 69 63 58 55 54 53 54 53 51 49 46 42 39 37 35 35 34 34 34 32 30 29 29 27 25 23 22 23 27 28 25 22 20 21 23 23 23 24 26 28 31 32 32 33 35 39
75 76 78 82 86 90 95 99 102 105 108 111 113 114 115 118 120 119 113 105 96 90 85 82 79 77 74 70 65 60 56 53 51 50 49 49 48 46 43 41 38 35 34 33 33 33 33 31 29 28 28 26 25 23 21 21 24 26 24 22 20 20 22 23 22 23 24 26 29 30 31 33 35 39
76 79 83 87 91 95 99 102 105 107 110 112 112 113 116 119 119 115 107 98 91 85 81 78 76 74 71 67 63 59 55 52 49 47 46 45 45 44 42 40 37 35 33 32 32 32 31 30 29 28 27 26 24 23 21 20 22 24 23 21 20 20 22 22 21 21 22 25 28 29 31 32 35 38
81 84 88 92 97 100 102 104 107 109 111 112 113 115 118 119 117 110 100 92 86 82 79 76 74 72 68 64 60 57 54 51 48 46 45 44 43 43 41 39 37 35 34 33 32 31 30 29 28 28 27 25 24 23 21 19 20 22 22 21 20 20 21 21 21 20 21 24 27 28 30 32 34 37
87 90 94 97 100 102 105 107 109 110 111 112 114 117 119 118 112 103 93 86 82 79 76 74 72 69 65 61 57 55 53 50 47 46 45 45 43 42 41 39 37 35 35 34 33 31 30 29 28 27 26 25 23 22 21 18 18 21 22 20 19 20 20 20 20 20 21 24 26 28 30 31 33 36
91 94 98 100 103 104 106 108 109 110 111 113 116 118 118 114 106 96 88 84 80 76 74 72 70 66 62 59 56 54 53 50 48 46 45 45 43 42 40 38 36 35 34 34 33 32 30 29 27 26 24 24 23 21 20 18 18 20 21 19 19 20 20 19 19 20 21 24 26 28 29 31 33 36
95 97 100 102 104 106 107 108 109 110 113 115 117 118 116 109 99 91 85 81 77 74 73 70 67 64 60 58 56 54 52 50 48 46 45 44 43 41 39 37 35 34 34 33 33 31 30 28 27 25 23 23 22 21 19 18 17 19 19 18 18 19 19 19 19 20 21 23 26 28 29 31 33 36
97 99 102 104 105 106 107 108 110 113 115 117 118 117 111 102 94 87 83 79 75 73 71 69 65 62 58 56 54 53 51 50 48 46 44 43 42 40 38 36 34 32 32 32 31 30 28 27 26 25 22 21 21 20 18 18 18 18 18 17 18 19 19 18 19 20 21 23 26 28 30 31 34 36
99 101 103 104 105 107 109 111 113 115 117 118 117 113 106 97 90 85 80 77 74 72 70 67 63 59 56 54 52 51 50 49 48 46 44 43 41 39 37 35 33 32 31 31 30 28 27 25 25 24 22 21 20 18 17 17 17 17 17 17 18 19 19 19 19 20 21 23 25 28 30 32 33 35
Wind_Direction
335 334 333 331 331 329 327 327 326 326 326 327 327 328 325 321 324 328 330 329 328 327 325 323 320 317 314 310 308 305 302 299 295 290 287 284 283 281 277 271 268 268 269 273 278 281 282 282 280 279 279 279 280 280 279 277 275 273 271 271 272 272 270 267 267 267 259 252 247 242 240 240 242 242
334 333 332 331 330 328 326 326 326 326 326 326 325 325 323 319 320 325 328 328 327 326 324 323 320 317 315 312 309 307 305 303 301 297 293 290 287 283 278 272 269 267 267 270 275 278 280 280 279 279 278 279 280 280 279 277 275 273 271 271 269 267 263 258 258 263 261 255 251 247 242 239 239 240
334 332 332 331 329 328 327 326 325 325 324 323 323 323 322 320 318 320 323 325 324 323 323 321 319 316 313 311 309 308 306 305 303 300 297 293 289 284 279 275 271 268 267 268 271 274 276 276 277 276 276 277 278 280 280 278 276 275 273 273 272 270 267 260 255 257 259 256 253 250 245 241 238 238
333 331 331 331 329 328 327 326 325 324 322 322 320 321 321 320 317 316 318 321 321 321 320 318 316 313 311 309 308 307 307 306 304 302 299 296 292 287 282 278 274 270 268 266 266 268 270 271 272 273 273 274 276 278 278 278 277 277 276 276 276 275 273 268 263 261 260 257 253 250 247 244 239 236
331 329 330 330 329 327 326 325 324 323 322 321 318 317 318 319 318 316 317 319 321 320 319 318 315 313 311 309 308 307 308 308 306 304 303 301 297 293 287 281 276 272 269 266 265 265 266 267 268 269 270 272 275 277 277 277 277 278 278 278 277 276 274 272 270 267 264 261 254 248 245 244 242 238
329 329 329 328 327 326 324 323 323 322 321 320 317 314 314 317 318 317 318 319 320 320 320 318 317 315 313 312 311 310 309 309 308 306 305 304 302 299 294 288 281 274 270 268 266 265 267 269 269 270 270 271 273 275 276 276 276 278 279 279 278 277 275 274 273 270 267 266 258 248 243 242 241 240
329 328 327 326 325 324 323 322 322 321 319 317 315 313 313 315 317 317 317 318 318 319 319 318 317 315 314 314 313 313 312 310 309 307 306 305 303 301 297 293 287 280 274 270 266 265 267 270 271 271 270 271 272 274 274 275 276 277 278 279 279 278 276 275 274 272 269 267 261 249 243 241 239 239
328 326 325 324 323 323 322 321 321 320 318 317 316 314 314 314 316 316 316 316 317 317 317 317 316 315 315 315 315 315 314 311 309 308 307 305 303 301 298 294 289 283 278 274 268 265 265 267 269 269 269 270 272 272 273 274 275 276 277 278 278 278 277 276 275 273 270 268 264 254 244 240 238 237
326 325 324 322 322 321 321 321 320 317 316 317 316 315 314 314 315 315 316 316 316 316 317 317 317 317 316 316 315 315 313 311 309 308 307 306 304 301 298 293 288 282 278 275 270 266 265 265 267 268 269 271 271 271 272 272 273 273 274 274 275 276 276 276 275 274 271 268 266 259 247 239 237 235
324 324 323 321 320 320 320 320 318 315 315 317 316 314 314 314 315 315 316 316 316 317 317 317 318 318 317 316 315 315 313 310 309 309 308 306 304 303 299 293 288 281 277 274 270 266 264 265 266 267 269 270 270 270 271 271 271 270 270 271 273 274 274 275 274 274 273 270 266 262 250 240 236 235
323 323 322 321 320 320 321 320 317 313 314 316 316 314 314 314 314 315 315 316 316 317 317 317 316 316 315 315 315 314 313 310 309 309 308 306 305 304 300 294 288 281 275 272 269 264 261 261 263 265 267 268 269 269 269 269 269 269 271 272 273 274 274 274 275 274 273 270 267 263 254 242 236 234
322 322 322 321 319 320 320 318 315 315 315 315 315 315 314 314 315 315 316 317 317 318 318 317 316 315 315 315 314 314 312 311 311 310 308 307 305 304 301 297 290 283 276 270 267 264 260 258 258 258 260 262 263 265 267 268 269 270 272 272 272 272 272 273 274 274 273 271 268 265 258 248 240 235
321 321 321 320 319 319 320 318 317 317 317 316 315 315 315 315 316 317 318 319 319 319 318 317 316 316 315 315 315 313 312 312 311 310 309 308 305 303 301 298 293 287 280 274 270 266 264 263 261 259 259 260 260 262 263 264 265 267 268 269 270 272 273 273 273 273 272 271 269 266 261 254 247 239
320 321 321 321 320 320 320 319 319 318 317 316 316 316 316 317 318 319 320 320 320 319 319 318 317 317 316 316 316 314 314 314 312 311 310 308 305 303 301 298 294 290 286 280 275 271 268 266 264 263 263 263 263 264 264 264 264 265 267 269 271 273 273 273 273 272 270 269 267 265 262 257 251 244
320 321 321 321 320 321 321 321 320 319 318 318 317 317 318 318 319 320 320 320 320 320 319 319 319 318 318 317 316 316 315 314 312 311 310 308 306 303 300 297 293 290 288 285 281 277 274 271 268 266 265 265 264 264 264 265 266 266 268 269 271 272 272 272 271 270 269 267 265 263 261 257 252 247
320 321 321 321 321 321 322 321 320 319 319 318 318 318 319 319 319 320 321 321 321 320 320 320 320 320 320 318 317 316 316 314 312 311 310 308 306 303 301 299 295 292 290 289 286 283 281 279 276 273 271 269 268 266 266 266 266 267 268 269 270 271 271 271 270 269 268 266 264 262 260 256 252 248
320 321 321 321 321 321 321 321 320 319 319 319 319 319 319 320 320 321 322 321 321 320 321 322 322 321 320 319 317 316 315 313 312 311 310 309 307 305 304 302 298 295 295 294 293 290 287 285 284 281 279 277 275 273 272 272 271 271 272 272 272 273 273 272 272 270 269 267 264 262 259 256 252 247
320 320 320 320 320 320 320 320 319 318 318 319 319 320 320 320 322 322 322 321 321 322 323 324 323 322 320 319 317 316 315 313 313 313 312 311 309 308 306 303 300 298 297 296 294 291 289 288 287 285 283 281 279 278 277 277 277 276 276 275 275 275 275 274 273 271 269 267 264 261 257 253 250 246
319 319 319 319 319 319 319 319 318 318 318 318 319 319 320 321 322 322 322 323 324 325 325 325 324 322 320 318 317 316 315 315 315 315 314 312 310 308 306 303 301 299 297 296 294 292 289 288 287 285 283 282 281 281 280 279 279 278 277 276 276 275 275 273 272 270 267 265 262 259 256 251 248 244
319 319 319 319 319 319 318 317 317 317 317 318 318 319 321 322 322 323 324 326 327 327 327 325 323 322 320 318 317 316 316 316 316 315 314 311 310 308 306 303 301 298 296 295 295 293 291 289 287 285 284 283 283 282 281 281 280 279 278 277 276 275 274 272 270 268 266 263 261 258 255 251 246 242
318 318 318 318 318 318 317 316 316 317 317 318 318 319 321 323 323 325 327 328 328 328 328 327 324 322 320 319 318 318 317 316 316 315 313 311 309 308 305 302 300 297 295 295 295 293 291 288 286 285 284 284 283 282 282 281 280 279 278 277 276 275 273 271 269 267 265 262 259 256 253 249 246 242
317 317 317 317 317 317 316 315 316 316 316 317 318 320 322 324 325 327 329 328 328 329 329 328 324 322 321 319 318 318 317 316 315 313 312 310 309 307 304 302 300 297 296 295 295 293 291 288 286 285 284 283 282 281 280 280 279 278 278 277 276 275 273 271 268 265 263 260 256 254 251 247 244 240
316 316 316 316 316 315 315 315 315 315 316 317 319 320 323 325 327 328 328 328 328 329 329 328 325 322 321 319 318 317 316 315 313 312 311 310 308 306 304 302 300 298 296 295 295 294 291 289 287 285 284 283 282 281 280 279 278 278 278 278 277 275 274 271 268 264 260 257 254 251 248 245 242 238
315 315 315 315 314 314 314 314 315 315 317 318 318 321 324 326 327 327 327 328 328 329 330 328 325 322 320 319 318 317 315 314 313 312 311 309 307 305 303 301 299 297 295 295 295 293 291 289 287 286 284 283 282 282 281 280 278 277 277 277 276 274 272 270 267 263 259 255 252 248 245 243 240 237
314 314 314 313 313 313 313 314 314 315 316 317 319 322 324 326 326 325 326 327 328 329 330 328 325 322 320 319 318 317 315 314 313 312 311 309 307 305 303 301 300 298 296 295 295 294 292 290 288 286 285 283 282 281 282 281 280 278 277 276 274 272 269 267 265 262 258 255 251 248 244 242 239 236
313 313 313 312 312 312 313 313 314 315 316 318 321 323 324 324 324 324 325 326 327 329 329 327 324 322 320 319 318 317 316 315 314 313 311 310 308 306 305 303 302 300 299 297 296 295 292 290 288 286 285 284 283 282 282 281 281 280 279 277 274 270 267 264 263 261 257 253 249 246 242 240 237 235
311 312 312 312 312 312 312 312 313 315 317 320 321 322 323 323 323 323 324 325 327 329 329 327 324 322 320 319 318 317 316 315 314 313 311 310 309 307 306 304 303 302 301 300 299 297 294 291 288 286 285 285 286 285 283 281 280 280 280 277 273 269 265 262 260 258 254 249 246 243 240 237 235 233
310 311 311 311 311 311 311 312 314 317 319 320 321 321 322 322 322 322 323 325 327 329 329 326 323 322 320 319 318 317 316 315 314 313 311 310 309 308 307 306 305 304 303 301 300 299 296 293 290 288 287 287 287 286 284 281 280 280 280 277 272 267 263 261 258 254 250 245 241 239 237 236 234 232
309 310 310 310 310 310 311 314 317 318 319 319 320 321 322 321 321 322 323 325 327 329 329 326 323 321 320 319 318 316 316 315 314 313 312 311 311 310 309 308 306 305 304 302 300 298 296 293 290 289 288 288 286 284 282 280 280 280 279 276 272 267 262 259 255 250 246 242 238 236 235 234 233 231
309 309 309 309 309 311 314 317 318 318 318 319 320 320 320 320 321 322 324 326 328 329 328 326 323 321 319 317 317 316 316 315 315 314 313 312 312 312 311 309 308 307 306 304 302 300 297 293 291 290 289 288 285 282 280 278 279 279 278 275 272 268 262 254 250 246 242 239 236 234 233 232 230 229
308 308 308 309 311 314 317 318 318 318 318 319 318 318 318 320 321 323 325 327 328 328 327 324 322 319 317 317 317 317 317 316 316 315 314 314 314 313 312 311 310 309 308 306 305 303 299 296 293 291 290 289 286 284 280 277 276 277 276 273 270 267 260 249 245 243 240 237 235 232 231 229 227 225
307 307 309 311 314 316 317 318 318 318 317 317 317 317 318 320 322 324 326 327 328 327 325 322 320 318 318 318 318 318 318 318 317 317 317 317 316 315 314 313 311 311 309 308 307 304 300 298 295 293 291 289 287 284 281 277 273 273 273 272 268 263 257 248 244 241 238 235 234 231 228 227 225 223
307 309 311 313 315 316 317 317 316 316 316 316 316 317 319 321 323 324 326 327 326 325 323 321 320 319 319 319 319 319 320 320 319 319 319 318 317 316 314 313 312 312 311 310 308 305 301 298 296 294 292 289 286 283 280 277 273 268 269 269 266 260 253 247 242 239 235 233 231 229 226 224 223 221
309 311 313 314 315 315 314 314 314 314 314 315 316 318 320 322 323 325 326 326 325 323 322 321 320 320 320 320 320 321 322 321 321 319 319 318 317 316 314 313 312 311 310 310 308 306 302 299 296 294 291 287 283 279 277 276 273 267 264 265 264 259 251 243 239 236 233 231 229 227 224 222 220 219
312 313 313 313 313 312 311 311 312 313 314 315 317 319 321 322 323 325 326 325 324 323 322 321 320 320 321 321 322 322 323 322 321 319 319 318 317 316 314 313 312 311 310 309 308 306 303 301 297 293 289 285 281 276 273 272 271 268 264 262 260 256 249 241 235 232 231 230 229 227 223 219 217 217
312 313 312 311 309 309 309 310 311 312 314 316 318 320 321 322 324 325 325 324 323 322 321 320 321 321 321 321 322 322 322 322 321 319 318 318 317 316 316 315 313 313 312 310 308 306 304 302 299 295 291 286 280 273 267 265 266 267 264 259 256 252 247 239 232 228 227 227 228 227 222 216 214 215
312 311 310 308 307 307 308 309 311 312 314 316 318 320 321 323 324 325 324 323 322 321 321 320 321 321 321 321 322 322 323 322 321 318 317 316 316 316 316 316 315 314 313 311 309 307 305 302 300 296 293 289 282 274 264 259 260 263 262 258 252 249 244 238 230 227 225 224 225 225 221 213 212 214
309 308 306 305 305 306 307 309 311 312 315 317 319 321 322 323 324 324 323 322 321 321 320 320 321 321 321 322 322 322 323 322 320 317 316 315 316 316 316 316 315 314 313 311 309 307 305 304 302 298 294 291 285 277 267 259 256 258 258 254 248 244 242 238 231 225 223 222 221 222 219 213 210 212
306 304 304 304 305 306 308 310 311 313 316 318 319 321 322 323 324 323 322 321 321 320 320 321 322 322 322 323 322 322 322 322 320 318 317 317 317 318 318 317 316 314 313 312 311 309 307 306 304 300 296 292 286 278 270 261 256 254 253 249 245 241 240 239 233 225 221 221 219 218 217 213 210 211
303 303 304 305 306 308 309 310 312 314 316 318 319 320 322 323 323 322 322 321 321 321 321 322 322 323 323 322 322 321 322 322 321 321 320 321 321 320 319 318 317 316 315 314 313 311 310 309 307 303 297 292 286 278 270 261 254 251 249 246 243 241 239 238 235 227 220 219 219 217 216 212 209 210
303 303 304 306 307 308 309 311 313 315 316 318 319 321 322 323 323 322 321 321 321 322 322 323 323 323 322 322 322 322 322 323 324 324 324 324 324 322 321 319 318 316 316 315 314 313 312 311 308 303 297 291 285 277 270 260 251 247 245 242 241 241 239 236 235 229 221 218 218 217 215 212 209 208
303 304 305 306 307 309 310 312 314 315 317 318 320 321 323 323 322 322 322 322 322 322 323 323 323 323 322 322 322 323 324 325 326 327 327 326 324 323 321 319 318 316 316 316 314 314 313 312 308 302 296 290 284 276 269 259 248 243 242 240 238 239 237 234 232 228 221 217 216 215 215 212 209 207
304 305 305 306 308 310 311 313 314 316 317 319 320 322 323 323 322 322 322 322 322 323 323 323 323 323 323 323 323 324 325 326 326 327 327 325 324 323 321 319 317 315 315 315 314 313 313 311 307 302 295 289 284 276 268 259 246 238 236 236 235 237 235 231 227 225 221 217 215 213 213 211 209 207
304 305 306 307 309 310 312 313 315 317 318 319 321 322 323 322 321 322 322 322 322 323 324 324 324 323 323 323 323 323 324 325 325 326 327 326 324 323 321 319 317 315 314 314 313 313 312 310 306 302 296 289 283 277 268 258 246 234 228 227 230 233 233 230 226 221 219 216 213 212 211 210 209 206
303 305 306 308 310 311 313 314 316 318 318 319 321 322 322 321 321 322 323 322 323 324 324 324 324 323 322 322 322 322 323 324 324 325 326 326 324 323 321 319 317 315 314 314 313 313 312 310 306 302 296 290 283 277 268 257 245 233 222 219 223 227 228 229 226 221 217 214 212 210 209 209 208 206
Height
10922 10920 10917 10915 10912 10909 10906 10903 10900 10897 10895 10892 10890 10889 10888 10886 10884 10883 10882 10879 10876 10873 10871 10868 10865 10862 10858 10856 10853 10851 10849 10847 10846 10845 10844 10843 10842 10841 10840 10839 10838 10838 10837 10835 10834 10833 10832 10832 10831 10830 10830 10829 10829 10829 10829 10829 10829 10829 10829 10830 10830 10831 10831 10832 10832 10831 10832 10833 10834 10837 10839 10842 10844 10847
10919 10916 10914 10911 10909 10907 10904 10901 10897 10894 10891 10888 10885 10884 10882 10880 10878 10876 10875 10874 10871 10869 10866 10864 10861 10859 10856 10852 10849 10847 10844 10841 10839 10837 10836 10835 10833 10832 10831 10831 10830 10829 10828 10827 10826 10825 10824 10824 10823 10823 10823 10822 10822 10821 10821 10821 10820 10820 10820 10820 10821 10822 10823 10824 10825 10824 10824 10824 10825 10827 10829 10832 10835 10838
10916 10913 10911 10908 10906 10904 10901 10899 10896 10892 10889 10886 10882 10880 10877 10875 10873 10871 10870 10869 10867 10865 10862 10859 10856 10854 10851 10849 10845 10842 10839 10836 10833 10831 10829 10827 10824 10823 10821 10821 10820 10820 10820 10819 10818 10817 10816 10816 10815 10815 10814 10814 10814 10813 10812 10812 10812 10812 10811 10811 10812 10812 10814 10815 10816 10817 10817 10816 10817 10818 10820 10822 10825 10828
10913 10911 10908 10906 10903 10900 10898 10896 10894 10891 10888 10884 10881 10877 10874 10871 10869 10867 10865 10864 10863 10861 10858 10856 10853 10849 10847 10844 10841 10837 10834 10831 10828 10825 10823 10820 10818 10815 10813 10810 10809 10808 10809 10809 10809 10809 10808 10807 10807 10806 10805 10805 10805 10804 10804 10803 10802 10802 10803 10803 10803 10803 10804 10805 10806 10807 10809 10809 10809 10810 10811 10813 10815 10818
10910 10908 10905 10903 10900 10898 10895 10892 10890 10888 10885 10882 10879 10875 10872 10869 10866 10863 10861 10859 10857 10855 10852 10850 10847 10844 10841 10839 10836 10832 10829 10825 10821 10818 10815 10812 10810 10808 10805 10802 10800 10798 10797 10797 10798 10798 10798 10798 10797 10797 10796 10795 10795 10794 10794 10793 10793 10793 10793 10793 10793 10794 10794 10795 10796 10796 10798 10801 10802 10802 10802 10803 10805 10808
10907 10904 10901 10899 10896 10894 10892 10889 10887 10884 10881 10879 10876 10873 10870 10866 10862 10858 10855 10852 10850 10848 10846 10842 10839 10836 10834 10832 10830 10826 10822 10819 10815 10811 10807 10803 10800 10797 10795 10792 10791 10789 10788 10787 10786 10786 10786 10786 10786 10786 10786 10786 10785 10785 10784 10784 10783 10783 10783 10782 10783 10783 10783 10784 10785 10786 10787 10790 10792 10793 10793 10794 10796 10798
10903 10900 10898 10895 10892 10890 10888 10886 10883 10880 10877 10874 10871 10868 10865 10862 10858 10853 10849 10846 10843 10841 10839 10836 10832 10829 10825 10823 10821 10818 10815 10811 10808 10804 10801 10797 10792 10787 10784 10781 10779 10778 10778 10777 10776 10776 10776 10776 10776 10775 10776 10776 10776 10776 10775 10774 10773 10772 10772 10772 10772 10772 10772 10773 10774 10775 10776 10778 10781 10784 10785 10785 10786 10788
10899 10896 10894 10891 10888 10885 10883 10881 10878 10875 10872 10869 10866 10863 10860 10856 10853 10849 10844 10841 10837 10834 10831 10829 10826 10822 10818 10814 10812 10810 10806 10802 10798 10796 10792 10789 10785 10780 10777 10773 10770 10768 10767 10767 10766 10766 10766 10766 10766 10765 10766 10766 10767 10766 10765 10764 10763 10762 10761 10761 10761 10761 10761 10762 10763 10764 10765 10767 10769 10772 10775 10776 10776 10777
10895 10892 10889 10886 10884 10881 10878 10876 10873 10870 10867 10864 10861 10857 10854 10850 10847 10844 10839 10835 10831 10826 10822 10819 10817 10814 10810 10806 10804 10802 10798 10793 10789 10787 10784 10780 10777 10773 10769 10765 10762 10760 10758 10758 10757 10757 10757 10757 10756 10756 10756 10757 10757 10756 10755 10754 10753 10752 10751 10750 10750 10750 10750 10751 10751 10752 10754 10755 10757 10760 10763 10765 10766 10767
10892 10889 10885 10882 10879 10877 10874 10871 10868 10864 10861 10858 10855 10851 10847 10844 10841 10837 10833 10829 10825 10820 10815 10810 10806 10803 10800 10797 10794 10792 10790 10785 10781 10778 10774 10770 10768 10766 10762 10757 10753 10751 10750 10749 10748 10748 10748 10747 10747 10747 10747 10747 10746 10745 10744 10743 10742 10740 10739 10739 10739 10739 10739 10739 10739 10740 10741 10743 10744 10747 10750 10753 10755 10756
10887 10884 10881 10877 10874 10872 10869 10865 10862 10859 10855 10851 10848 10844 10841 10837 10834 10830 10827 10823 10819 10815 10810 10804 10799 10794 10791 10788 10785 10782 10779 10776 10772 10769 10765 10760 10757 10756 10753 10749 10745 10743 10742 10740 10739 10739 10738 10737 10736 10737 10737 10736 10735 10734 10733 10731 10730 10728 10727 10727 10726 10726 10726 10726 10727 10728 10729 10730 10731 10734 10737 10739 10742 10744
10882 10879 10877 10873 10869 10866 10863 10859 10856 10852 10848 10844 10840 10837 10833 10830 10827 10823 10819 10815 10811 10807 10803 10798 10793 10787 10783 10780 10777 10772 10768 10765 10762 10759 10755 10751 10746 10743 10741 10739 10735 10734 10733 10732 10730 10728 10726 10724 10724 10724 10724 10723 10723 10723 10721 10719 10717 10715 10714 10714 10713 10713 10714 10714 10715 10715 10716 10717 10718 10720 10722 10725 10728 10730
10875 10873 10872 10868 10864 10861 10858 10854 10849 10845 10841 10837 10833 10830 10826 10822 10818 10814 10810 10806 10802 10798 10794 10789 10784 10779 10774 10770 10768 10763 10759 10755 10752 10748 10745 10742 10736 10732 10729 10726 10723 10724 10724 10723 10721 10717 10714 10714 10714 10712 10711 10710 10710 10710 10708 10705 10704 10702 10700 10699 10699 10699 10699 10700 10702 10703 10704 10704 10705 10706 10707 10709 10712 10715
10869 10866 10864 10861 10857 10854 10851 10846 10842 10838 10834 10830 10826 10821 10817 10813 10809 10805 10801 10797 10793 10789 10785 10779 10775 10770 10764 10760 10757 10753 10748 10745 10741 10737 10734 10731 10727 10723 10720 10715 10710 10710 10713 10713 10710 10705 10703 10704 10704 10702 10701 10700 10698 10696 10694 10691 10689 10688 10687 10686 10685 10685 10685 10685 10686 10687 10689 10690 10691 10691 10692 10694 10696 10699
10862 10858 10855 10852 10848 10845 10842 10838 10834 10830 10825 10821 10816 10812 10808 10803 10800 10797 10793 10789 10784 10780 10775 10770 10764 10760 10755 10749 10745 10742 10739 10735 10730 10726 10723 10720 10716 10713 10711 10708 10701 10697 10700 10703 10700 10694 10689 10691 10693 10691 10688 10687 10685 10683 10679 10677 10676 10676 10674 10673 10672 10671 10671 10671 10672 10672 10672 10673 10674 10675 10677 10678 10680 10683
10855 10851 10847 10843 10839 10835 10832 10828 10824 10820 10815 10811 10807 10803 10799 10795 10791 10788 10784 10780 10776 10771 10766 10761 10754 10749 10746 10740 10734 10732 10729 10725 10720 10717 10712 10709 10706 10702 10699 10698 10693 10686 10686 10689 10689 10684 10677 10676 10680 10679 10674 10672 10671 10667 10664 10662 10662 10662 10660 10659 10658 10657 10657 10657 10657 10656 10656 10657 10658 10659 10661 10663 10666 10669
10847 10843 10839 10835 10831 10827 10823 10820 10815 10811 10806 10802 10798 10794 10790 10786 10782 10779 10775 10771 10767 10762 10757 10752 10744 10739 10735 10730 10724 10721 10719 10715 10711 10707 10703 10698 10695 10691 10688 10685 10681 10675 10673 10675 10676 10672 10664 10660 10663 10662 10658 10656 10655 10651 10647 10646 10646 10646 10645 10644 10642 10641 10641 10641 10641 10641 10641 10641 10642 10643 10646 10648 10650 10653
10839 10835 10831 10827 10823 10820 10816 10812 10807 10803 10799 10794 10790 10786 10783 10779 10775 10771 10767 10763 10758 10752 10747 10741 10734 10728 10723 10719 10714 10710 10707 10704 10700 10697 10693 10687 10683 10680 10677 10672 10668 10663 10660 10661 10663 10661 10652 10647 10647 10646 10641 10639 10637 10633 10630 10629 10630 10629 10628 10626 10625 10625 10625 10625 10625 10625 10625 10625 10625 10626 10628 10631 10634 10638
10832 10828 10824 10821 10816 10812 10809 10805 10800 10796 10792 10788 10783 10779 10776 10772 10767 10763 10759 10754 10748 10741 10735 10729 10723 10717 10713 10709 10704 10700 10695 10692 10688 10685 10681 10676 10672 10669 10665 10660 10655 10651 10646 10645 10649 10650 10643 10636 10634 10630 10625 10623 10621 10616 10613 10613 10613 10611 10610 10609 10610 10609 10609 10609 10608 10608 10608 10609 10609 10609 10611 10614 10618 10622
10825 10821 10817 10813 10808 10804 10801 10797 10793 10789 10785 10780 10776 10772 10768 10763 10759 10754 10750 10744 10738 10732 10725 10718 10712 10707 10702 10698 10694 10689 10685 10680 10677 10674 10670 10664 10660 10658 10654 10648 10642 10637 10632 10629 10633 10636 10631 10624 10620 10616 10610 10608 10606 10600 10597 10596 10595 10594 10593 10593 10593 10593 10593 10592 10591 10591 10592 10593 10593 10594 10595 10598 10602 10607
10817 10813 10809 10804 10800 10796 10792 10789 10785 10781 10777 10772 10768 10764 10759 10754 10749 10744 10739 10734 10728 10722 10715 10708 10702 10697 10692 10687 10682 10678 10673 10669 10665 10662 10657 10652 10648 10645 10641 10636 10630 10624 10617 10614 10617 10620 10617 10610 10606 10601 10596 10594 10591 10585 10582 10581 10578 10576 10577 10578 10578 10577 10576 10576 10576 10576 10576 10576 10577 10578 10580 10583 10587 10591
10809 10806 10801 10797 10792 10789 10785 10781 10777 10773 10768 10764 10759 10754 10749 10744 10739 10734 10729 10723 10717 10711 10704 10698 10692 10687 10682 10677 10672 10667 10663 10658 10654 10650 10645 10640 10635 10630 10626 10622 10618 10611 10603 10599 10602 10604 10600 10594 10591 10587 10584 10580 10575 10571 10569 10566 10562 10560 10562 10563 10563 10561 10560 10561 10561 10561 10561 10561 10562 10564 10566 10568 10572 10577
10801 10797 10793 10789 10785 10781 10777 10773 10769 10764 10760 10755 10750 10745 10740 10735 10729 10724 10719 10713 10707 10700 10694 10687 10682 10676 10671 10667 10662 10657 10653 10648 10643 10638 10633 10627 10622 10616 10611 10606 10603 10598 10589 10584 10586 10588 10583 10577 10574 10572 10571 10567 10560 10556 10555 10553 10549 10547 10549 10550 10549 10547 10547 10547 10546 10546 10547 10547 10548 10551 10552 10554 10558 10563
10793 10789 10785 10781 10777 10773 10769 10765 10761 10756 10751 10746 10742 10737 10732 10726 10721 10715 10709 10703 10696 10689 10683 10676 10671 10666 10661 10656 10651 10646 10641 10635 10630 10624 10619 10613 10608 10602 10597 10591 10588 10584 10577 10571 10571 10572 10567 10562 10558 10555 10556 10554 10549 10544 10540 10537 10535 10536 10539 10539 10537 10535 10535 10534 10533 10533 10535 10536 10537 10539 10541 10543 10547 10552
10786 10781 10777 10774 10770 10766 10762 10757 10752 10748 10743 10738 10734 10729 10724 10719 10713 10707 10700 10694 10688 10681 10674 10667 10661 10655 10650 10644 10639 10633 10627 10621 10615 10609 10603 10598 10593 10587 10583 10578 10573 10569 10563 10559 10558 10557 10553 10548 10545 10542 10541 10540 10539 10536 10531 10524 10521 10524 10528 10529 10527 10525 10524 10523 10523 10523 10524 10527 10528 10529 10531 10533 10537 10541
10778 10774 10770 10767 10763 10758 10754 10749 10745 10741 10736 10731 10726 10720 10716 10710 10705 10698 10692 10686 10680 10673 10666 10659 10652 10645 10639 10633 10626 10620 10613 10607 10601 10594 10588 10583 10578 10572 10567 10564 10560 10555 10550 10546 10545 10545 10541 10537 10533 10531 10529 10528 10527 10527 10524 10517 10511 10512 10518 10518 10516 10515 10514 10514 10514 10514 10516 10517 10518 10519 10522 10524 10527 10531
10771 10767 10763 10759 10755 10751 10746 10742 10738 10733 10728 10722 10717 10712 10707 10702 10696 10690 10684 10678 10672 10664 10656 10649 10642 10635 10629 10622 10615 10608 10601 10595 10588 10582 10575 10569 10564 10559 10554 10550 10547 10544 10539 10534 10532 10532 10530 10526 10522 10520 10520 10519 10517 10516 10514 10510 10504 10504 10508 10508 10506 10505 10505 10505 10506 10506 10507 10508 10509 10511 10513 10515 10517 10522
10763 10760 10756 10752 10748 10744 10740 10735 10731 10725 10719 10714 10708 10704 10699 10694 10688 10682 10676 10669 10662 10654 10646 10638 10632 10625 10618 10611 10604 10597 10590 10583 10577 10570 10563 10557 10552 10547 10542 10538 10536 10534 10530 10526 10523 10520 10518 10516 10512 10510 10510 10511 10510 10507 10505 10502 10497 10496 10499 10499 10497 10496 10497 10499 10499 10498 10499 10501 10502 10503 10505 10508 10511 10515
10756 10753 10749 10745 10741 10737 10733 10728 10723 10717 10711 10706 10700 10696 10691 10686 10680 10673 10667 10660 10652 10644 10635 10628 10621 10614 10607 10601 10594 10587 10580 10573 10566 10559 10551 10546 10542 10537 10531 10528 10526 10524 10522 10519 10516 10513 10510 10507 10504 10502 10502 10502 10502 10500 10498 10494 10490 10489 10491 10491 10489 10488 10491 10493 10492 10491 10492 10494 10495 10496 10499 10502 10506 10510
10749 10745 10742 10738 10734 10730 10725 10720 10715 10709 10703 10698 10693 10688 10684 10678 10670 10663 10656 10649 10641 10632 10624 10617 10610 10604 10597 10591 10585 10578 10571 10563 10556 10549 10542 10536 10532 10528 10523 10518 10516 10515 10513 10511 10509 10506 10503 10500 10498 10496 10494 10493 10493 10493 10491 10488 10484 10481 10483 10484 10483 10482 10485 10487 10486 10485 10486 10488 10489 10491 10495 10498 10501 10506
10741 10738 10735 10731 10727 10722 10717 10713 10707 10701 10696 10691 10686 10681 10676 10669 10661 10653 10645 10638 10630 10622 10614 10608 10602 10595 10588 10581 10574 10568 10561 10554 10547 10540 10534 10528 10523 10519 10515 10511 10507 10506 10505 10503 10501 10498 10495 10493 10491 10489 10488 10486 10485 10485 10484 10482 10479 10476 10476 10478 10478 10477 10480 10481 10480 10480 10482 10483 10485 10487 10490 10493 10497 10501
10734 10731 10727 10723 10718 10714 10710 10705 10700 10695 10690 10684 10678 10673 10667 10660 10651 10643 10635 10627 10620 10613 10606 10599 10593 10585 10577 10569 10562 10556 10550 10543 10537 10531 10525 10520 10515 10510 10507 10503 10500 10498 10496 10496 10495 10492 10489 10486 10484 10482 10481 10479 10478 10477 10476 10475 10474 10472 10471 10472 10473 10473 10474 10476 10475 10475 10477 10479 10480 10483 10486 10489 10493 10497
10727 10723 10719 10714 10711 10707 10703 10699 10695 10689 10683 10677 10670 10664 10658 10650 10642 10634 10627 10619 10612 10604 10597 10589 10581 10573 10566 10559 10552 10545 10538 10532 10526 10522 10517 10512 10508 10503 10500 10497 10494 10491 10488 10487 10487 10485 10483 10481 10478 10476 10475 10474 10472 10472 10470 10468 10468 10468 10467 10467 10467 10468 10470 10471 10471 10471 10473 10475 10476 10478 10482 10485 10489 10493
10719 10715 10711 10707 10704 10700 10696 10692 10688 10682 10676 10668 10662 10656 10649 10641 10633 10626 10619 10611 10603 10595 10586 10578 10570 10563 10556 10548 10541 10534 10528 10522 10517 10513 10510 10506 10502 10498 10494 10491 10488 10486 10482 10480 10479 10478 10476 10475 10473 10471 10470 10468 10467 10467 10466 10463 10461 10462 10463 10463 10463 10464 10465 10467 10467 10468 10470 10471 10472 10474 10478 10481 10486 10489
10711 10707 10703 10700 10697 10693 10689 10685 10680 10674 10668 10661 10654 10648 10640 10632 10625 10617 10609 10602 10593 10584 10576 10568 10561 10554 10547 10540 10533 10527 10521 10516 10511 10506 10502 10499 10496 10493 10490 10487 10483 10481 10478 10475 10473 10471 10470 10469 10468 10466 10464 10463 10462 10462 10462 10459 10456 10456 10458 10459 10459 10460 10461 10462 10464 10465 10466 10467 10469 10471 10474 10479 10482 10485
10704 10700 10696 10693 10690 10686 10681 10677 10672 10666 10661 10654 10647 10640 10632 10625 10617 10608 10600 10592 10584 10575 10567 10560 10553 10547 10540 10534 10528 10522 10517 10512 10506 10501 10497 10493 10489 10487 10484 10481 10478 10476 10473 10471 10468 10465 10464 10463 10462 10460 10458 10458 10457 10457 10457 10455 10452 10452 10453 10454 10456 10457 10457 10458 10461 10462 10463 10464 10466 10468 10471 10475 10479 10481
10696 10693 10690 10687 10683 10678 10674 10670 10664 10659 10653 10647 10639 10631 10623 10616 10608 10600 10592 10584 10576 10568 10560 10554 10547 10541 10535 10529 10523 10517 10513 10508 10503 10498 10493 10488 10485 10481 10478 10476 10473 10471 10469 10466 10463 10461 10459 10457 10456 10455 10453 10452 10451 10451 10452 10451 10449 10448 10449 10451 10452 10453 10453 10455 10457 10458 10460 10461 10463 10465 10468 10472 10475 10477
10690 10687 10684 10681 10676 10671 10667 10662 10656 10651 10645 10638 10630 10623 10615 10607 10600 10592 10584 10577 10569 10561 10554 10548 10541 10534 10528 10521 10516 10511 10507 10503 10499 10495 10490 10485 10481 10477 10474 10471 10469 10466 10464 10462 10459 10457 10454 10453 10451 10450 10448 10447 10446 10446 10447 10447 10446 10445 10446 10447 10449 10450 10450 10451 10453 10455 10456 10458 10460 10462 10465 10468 10471 10473
10685 10682 10678 10674 10669 10664 10660 10654 10648 10642 10637 10630 10624 10616 10609 10601 10593 10585 10576 10569 10561 10554 10547 10540 10533 10527 10520 10514 10509 10505 10502 10499 10495 10490 10486 10482 10477 10473 10470 10467 10464 10462 10460 10458 10455 10453 10451 10449 10447 10445 10444 10443 10442 10441 10442 10443 10443 10442 10442 10444 10445 10446 10447 10448 10450 10452 10454 10455 10457 10459 10462 10465 10468 10470
10679 10676 10671 10666 10661 10656 10652 10646 10640 10634 10628 10622 10616 10609 10601 10593 10585 10576 10568 10561 10553 10546 10539 10533 10526 10520 10514 10509 10505 10501 10497 10493 10489 10484 10480 10477 10473 10469 10465 10462 10459 10457 10455 10453 10451 10449 10447 10445 10443 10441 10440 10438 10438 10437 10438 10439 10440 10439 10439 10440 10442 10443 10444 10446 10447 10449 10451 10453 10454 10456 10459 10462 10465 10467
10673 10669 10664 10658 10653 10648 10643 10637 10632 10626 10620 10614 10607 10599 10591 10583 10575 10567 10560 10553 10546 10539 10532 10526 10519 10514 10509 10504 10499 10495 10491 10487 10483 10479 10475 10471 10468 10464 10461 10458 10455 10453 10450 10448 10446 10444 10443 10441 10440 10438 10436 10434 10434 10434 10434 10436 10437 10436 10436 10437 10439 10440 10442 10443 10445 10447 10449 10450 10452 10454 10456 10459 10462 10465
10666 10661 10656 10650 10644 10639 10634 10628 10623 10617 10611 10605 10597 10590 10582 10574 10566 10559 10552 10545 10538 10532 10526 10520 10514 10508 10503 10498 10493 10489 10485 10481 10478 10474 10471 10467 10464 10461 10458 10455 10452 10449 10446 10444 10442 10441 10439 10438 10436 10434 10433 10431 10431 10430 10431 10433 10434 10434 10434 10435 10437 10438 10439 10441 10443 10444 10446 10447 10449 10451 10453 10456 10459 10462
10658 10654 10647 10641 10636 10631 10626 10620 10614 10608 10602 10595 10588 10581 10573 10565 10558 10551 10545 10538 10531 10526 10520 10514 10508 10502 10497 10492 10488 10483 10480 10476 10473 10470 10468 10464 10461 10458 10455 10452 10449 10446 10443 10441 10439 10438 10436 10434 10432 10431 10430 10428 10428 10428 10428 10430 10431 10432 10432 10433 10434 10435 10437 10439 10441 10442 10444 10445 10447 10448 10451 10453 10456 10459
10651 10646 10639 10633 10628 10622 10617 10611 10605 10599 10592 10586 10579 10572 10565 10557 10551 10545 10538 10531 10525 10519 10514 10507 10502 10497 10492 10488 10484 10480 10476 10473 10470 10467 10464 10461 10458 10455 10451 10449 10446 10443 10441 10439 10437 10435 10433 10431 10429 10428 10427 10425 10425 10425 10426 10427 10428 10430 10431 10431 10432 10433 10435 10437 10439 10440 10442 10443 10445 10446 10448 10451 10453 10456
10643 10637 10630 10624 10618 10612 10606 10601 10595 10589 10583 10577 10571 10565 10557 10550 10544 10538 10531 10525 10519 10513 10508 10502 10497 10492 10488 10484 10480 10477 10473 10470 10467 10464 10461 10458 10455 10452 10448 10446 10443 10440 10438 10436 10434 10432 10431 10429 10427 10425 10424 10423 10422 10423 10423 10424 10425 10427 10428 10429 10430 10431 10433 10434 10436 10438 10440 10441 10443 10444 10446 10449 10452 10455